Location: Quedlinburg
(51.7921°N, 11.1414°E)
Time: 13:21:23
(UTC+02:00)

RS-15 - Pass Details

Date: 16 March 2026
Orbit: 1893 x 2152 km, 64.8° (Epoch: 22 April)

Event Time Altitude Azimuth Distance (km) Brightness Sun altitude
Rises 22:15:59 0° 244° (WSW) 5,271 10.4 -33.0°
Reaches altitude 10° 22:19:17 10° 248° (WSW) 4,284 10.0 -33.3°
Maximum altitude 22:30:05 60° 328° (NNW) 2,163 8.3 -34.3°
Drops below altitude 10° 22:41:21 10° 48° (NE) 4,449 10.0 -35.3°
Sets 22:44:52 0° 52° (NE) 5,484 10.5 -35.6°
